Location: Madrid
(40.4167°N, 3.7036°W)
Time: 15:00:33
(UTC+00:00)

ISS - Pass Details

Date: 12 July 2024
Orbit: 410 x 424 km, 51.6° (Epoch: 14 July)

Event Time Altitude Azimuth Distance (km) Brightness Sun altitude
Rises 01:01:02 0° 312° (NW) 2,345 0.5 -27.0°
Reaches altitude 10° 01:03:38 10° 333° (NNW) 1,483 -0.4 -26.9°
Maximum altitude 01:05:57 17° 17° (NNE) 1,120 -0.8 -26.8°
Drops below altitude 10° 01:08:16 10° 62° (ENE) 1,485 -0.5 -26.7°
Sets 01:10:51 0° 83° (E) 2,349 0.3 -26.6°
